H1 CPF 2 NER 2020 11 10 9 315 01 glonass116 H2 0907001 9116 36111 2020 11 10 0 0 0 2020 11 13 23 45 0 900 1 1 0 0 0 1 H9 10 0 59163 0.00000 0 -5235812.097 -21886455.737 12014413.460 10 0 59163 900.00000 0 -5355857.736 -23193583.447 9176792.959 10 0 59163 1800.00000 0 -5542220.863 -24129394.760 6160972.686 10 0 59163 2700.00000 0 -5742009.990 -24674527.888 3025526.950 10 0 59163 3600.00000 0 -5900440.440 -24822616.318 -168659.434 10 0 59163 4500.00000 0 -5963383.189 -24580463.629 -3359574.076 10 0 59163 5400.00000 0 -5879891.190 -23967685.140 -6485281.079 10 0 59163 6300.00000 0 -5604595.881 -23015831.862 -9485122.671 10 0 59163 7200.00000 0 -5099872.155 -21767034.155 -12300894.840 10 0 59163 8100.00000 0 -4337679.900 -20272222.464 -14877974.137 10 0 59163 9000.00000 0 -3301003.848 -18589000.053 -17166373.957 10 0 59163 9900.00000 0 -1984830.507 -16779257.071 -19121710.005 10 0 59163 10800.00000 0 -396620.252 -14906625.756 -20706056.774 10 0 59163 11700.00000 0 1443746.196 -13033882.929 -21888678.947 10 0 59163 12600.00000 0 3504545.773 -11220407.902 -22646624.155 10 0 59163 13500.00000 0 5743292.708 -9519801.273 -22965166.155 10 0 59163 14400.00000 0 8108276.155 -7977763.233 -22838090.275 10 0 59163 15300.00000 0 10540493.169 -6630319.135 -22267815.777 10 0 59163 16200.00000 0 12975897.957 -5502465.564 -21265352.746 10 0 59163 17100.00000 0 15347875.217 -4607292.650 -19850094.007 10 0 59163 18000.00000 0 17589835.681 -3945618.709 -18049445.553 10 0 59163 18900.00000 0 19637826.780 -3506151.932 -15898301.933 10 0 59163 19800.00000 0 21433050.327 -3266171.850 -13438375.906 10 0 59163 20700.00000 0 22924182.467 -3192701.666 -10717394.611 10 0 59163 21600.00000 0 24069399.158 -3244121.729 -7788177.143 10 0 59163 22500.00000 0 24838022.296 -3372155.795 -4707610.917 10 0 59163 23400.00000 0 25211717.229 -3524145.808 -1535546.584 10 0 59163 24300.00000 0 25185191.107 -3645518.457 1666367.031 10 0 59163 25200.00000 0 24766362.386 -3682338.421 4835884.960 10 0 59163 26100.00000 0 23975994.103 -3583839.349 7911381.109 10 0 59163 27000.00000 0 22846806.266 -3304824.379 10833051.950 10 0 59163 27900.00000 0 21422104.675 -2807833.419 13544084.783 10 0 59163 28800.00000 0 19753984.070 -2064984.365 15991767.074 10 0 59163 29700.00000 0 17901181.394 -1059409.204 18128514.835 10 0 59163 30600.00000 0 15926669.604 213776.798 19912799.731 10 0 59163 31500.00000 0 13895093.352 1747014.758 21309956.751 10 0 59163 32400.00000 0 11870154.117 3520371.151 22292856.915 10 0 59163 33300.00000 0 9912054.248 5502134.211 22842432.252 10 0 59163 34200.00000 0 8075106.664 7649913.613 22948043.224 10 0 59163 35100.00000 0 6405609.565 9912198.300 22607681.942 10 0 59163 36000.00000 0 4940074.231 12230308.111 21828007.608 10 0 59163 36900.00000 0 3703879.010 14540658.353 20624213.809 10 0 59163 37800.00000 0 2710404.567 16777243.461 19019730.454 10 0 59163 38700.00000 0 1960685.239 18874236.678 17045766.145 10 0 59163 39600.00000 0 1443589.779 20768597.704 14740699.913 10 0 59163 40500.00000 0 1136522.456 22402579.876 12149333.981 10 0 59163 41400.00000 0 1006613.752 23726032.566 9322021.978 10 0 59163 42300.00000 0 1012349.304 24698402.778 6313689.505 10 0 59163 43200.00000 0 1105567.335 25290352.614 3182766.110 10 0 59163 44100.00000 0 1233739.320 25484925.167 -9950.528 10 0 59163 45000.00000 0 1342436.738 25278210.348 -3202475.858 10 0 59163 45900.00000 0 1377878.986 24679483.149 -6332842.020 10 0 59163 46800.00000 0 1289454.137 23710808.901 -9340300.139 10 0 59163 47700.00000 0 1032105.534 22406132.474 -12166497.774 10 0 59163 48600.00000 0 568482.937 20809889.926 -14756608.662 10 0 59163 49500.00000 0 -129233.050 18975200.909 -17060392.991 10 0 59163 50400.00000 0 -1077910.665 16961717.635 -19033167.839 10 0 59163 51300.00000 0 -2282511.210 14833220.174 -20636669.462 10 0 59163 52200.00000 0 -3735638.792 12655058.235 -21839791.275 10 0 59163 53100.00000 0 -5417615.354 10491545.701 -22619183.761 10 0 59163 54000.00000 0 -7297079.040 8403415.863 -22959705.284 10 0 59163 54900.00000 0 -9332082.153 6445442.530 -22854715.496 10 0 59163 55800.00000 0 -11471644.211 4664325.295 -22306205.825 10 0 59163 56700.00000 0 -13657696.740 3096926.041 -21324764.552 10 0 59163 57600.00000 0 -15827340.100 1768929.291 -19929376.814 10 0 59163 58500.00000 0 -17915319.445 693981.491 -18147062.877 10 0 59163 59400.00000 0 -19856617.576 -126655.638 -16012361.009 10 0 59163 60300.00000 0 -21589057.268 -703923.828 -13566664.073 10 0 59163 61200.00000 0 -23055804.713 -1060267.218 -10857421.993 10 0 59163 62100.00000 0 -24207669.544 -1228441.546 -7937224.823 10 0 59163 63000.00000 0 -25005104.959 -1249884.201 -4862783.681 10 0 59163 63900.00000 0 -25419823.650 -1172714.410 -1693829.212 10 0 59163 64800.00000 0 -25435961.226 -1049448.633 1508051.021 10 0 59163 65700.00000 0 -25050737.628 -934528.560 4680613.304 10 0 59163 66600.00000 0 -24274588.200 -881767.103 7762172.700 10 0 59163 67500.00000 0 -23130758.459 -941821.554 10692807.868 10 0 59163 68400.00000 0 -21654379.316 -1159801.915 13415531.618 10 0 59163 69300.00000 0 -19891061.487 -1573116.719 15877403.683 10 0 59163 70200.00000 0 -17895068.170 -2209648.537 18030563.581 10 0 59163 71100.00000 0 -15727142.728 -3086337.354 19833163.171 10 0 59163 72000.00000 0 -13452082.618 -4208232.558 21250180.628 10 0 59163 72900.00000 0 -11136161.178 -5568054.455 22254100.162 10 0 59163 73800.00000 0 -8844505.020 -7146284.675 22825444.586 10 0 59163 74700.00000 0 -6638536.401 -8911782.442 22953150.754 10 0 59163 75600.00000 0 -4573586.842 -10822901.683 22634781.051 10 0 59163 76500.00000 0 -2696780.815 -12829062.884 21876567.208 10 0 59163 77400.00000 0 -1045276.927 -14872714.556 20693285.905 10 0 59163 78300.00000 0 355061.226 -16891602.854 19107968.788 10 0 59163 79200.00000 0 1490510.357 -18821255.007 17151452.566 10 0 59163 80100.00000 0 2359815.005 -20597573.096 14861777.919 10 0 59163 81000.00000 0 2973985.100 -22159430.071 12283448.817 10 0 59163 81900.00000 0 3355573.608 -23451159.679 9466566.484 10 0 59163 82800.00000 0 3537465.975 -24424836.194 6465854.851 10 0 59163 83700.00000 0 3561233.728 -25042248.650 3339596.414 10 0 59163 84600.00000 0 3475122.781 -25276486.923 148499.237 10 0 59163 85500.00000 0 3331762.360 -25113073.266 -3045482.601 10 0 59164 0.00000 0 3185692.146 -24550592.010 -6180351.974 10 0 59164 900.00000 0 3090813.094 -23600790.805 -9195271.900 10 0 59164 1800.00000 0 3097869.373 -22288150.222 -12031744.398 10 0 59164 2700.00000 0 3252069.719 -20648938.341 -14634743.350 10 0 59164 3600.00000 0 3590947.443 -18729791.407 -16953778.664 10 0 59164 4500.00000 0 4142550.807 -16585878.926 -18943871.574 10 0 59164 5400.00000 0 4924039.943 -14278730.031 -20566422.664 10 0 59164 6300.00000 0 5940750.044 -11873811.276 -21789956.323 10 0 59164 7200.00000 0 7185760.789 -9437956.370 -22590727.749 10 0 59164 8100.00000 0 8639990.954 -7036754.099 -22953181.352 10 0 59164 9000.00000 0 10272815.312 -4732002.232 -22870252.091 10 0 59164 9900.00000 0 12043179.155 -2579332.428 -22343504.107 10 0 59164 10800.00000 0 13901165.177 -626103.878 -21383103.997 10 0 59164 11700.00000 0 15789948.552 1090347.695 -20007628.910 10 0 59164 12600.00000 0 17648059.736 2544033.635 -18243712.684 10 0 59164 13500.00000 0 19411861.504 3721154.288 -16125536.170 10 0 59164 14400.00000 0 21018137.500 4620424.884 -13694170.774 10 0 59164 15300.00000 0 22406684.446 5252872.413 -10996787.192 10 0 59164 16200.00000 0 23522799.640 5641112.669 -8085743.981 10 0 59164 17100.00000 0 24319559.299 5818138.474 -5017573.114 10 0 59164 18000.00000 0 24759791.670 5825670.711 -1851882.046 10 0 59164 18900.00000 0 24817661.381 5712142.403 1349806.334 10 0 59164 19800.00000 0 24479797.659 5530401.768 4525253.087 10 0 59164 20700.00000 0 23745918.174 5335232.185 7612717.936 10 0 59164 21600.00000 0 22628921.508 5180794.967 10552165.098 10 0 59164 22500.00000 0 21154443.742 5118104.160 13286436.046 10 0 59164 23400.00000 0 19359897.344 5192641.229 15762365.645 10 0 59164 24300.00000 0 17293032.405 5442211.534 17931819.468 10 0 59164 25200.00000 0 15010080.373 5895134.143 19752631.782 10 0 59164 26100.00000 0 12573558.019 6568842.267 21189425.807 10 0 59164 27000.00000 0 10049823.388 7468954.132 22214300.454 10 0 59164 27900.00000 0 7506485.704 8588854.159 22807370.473 10 0 59164 28800.00000 0 5009777.135 9909802.666 22957149.882 10 0 59164 29700.00000 0 2621995.505 11401570.110 22660771.714 10 0 59164 30600.00000 0 399123.883 13023569.816 21924040.181 10 0 59164 31500.00000 0 -1611274.596 14726442.158 20761314.579 10 0 59164 32400.00000 0 -3371800.076 16454024.314 19195227.400 10 0 59164 33300.00000 0 -4856526.075 18145623.501 17256242.154 10 0 59164 34200.00000 0 -6051822.997 19738498.739 14982059.526 10 0 59164 35100.00000 0 -6956662.215 21170447.475 12416883.267 10 0 59164 36000.00000 0 -7582389.536 22382388.819 9610559.980 10 0 59164 36900.00000 0 -7951979.083 23320835.114 6617609.478 10 0 59164 37800.00000 0 -8098800.423 23940148.192 3496164.580 10 0 59164 38700.00000 0 -8064952.215 24204485.573 306840.970 10 0 59164 39600.00000 0 -7899233.767 24089354.788 -2888440.633 10 0 59164 40500.00000 0 -7654841.133 23582710.521 -6027656.913 10 0 59164 41400.00000 0 -7386885.885 22685548.344 -9049885.475 10 0 59164 42300.00000 0 -7149841.941 21411970.073 -11896485.787 10 0 59164 43200.00000 0 -6995028.815 19788717.837 -14512234.650 10 0 59164 44100.00000 0 -6968237.852 17854196.156 -16846394.260 10 0 59164 45000.00000 0 -7107601.829 15657022.695 -18853692.374 10 0 59164 45900.00000 0 -7441797.949 13254167.815 -20495196.034 10 0 59164 46800.00000 0 -7988660.144 10708759.997 -21739062.477 10 0 59164 47700.00000 0 -8754259.396 8087647.913 -22561153.214 10 0 59164 48600.00000 0 -9732491.205 5458819.794 -22945499.988 10 0 59164 49500.00000 0 -10905188.258 2888786.384 -22884613.998 10 0 59164 50400.00000 0 -12242754.399 440035.283 -22379632.633 10 0 59164 51300.00000 0 -13705294.418 -1831338.633 -21440300.884 10 0 59164 52200.00000 0 -15244193.487 -3877729.366 -20084787.521 10 0 59164 53100.00000 0 -16804081.212 -5661756.236 -18339339.067 10 0 59164 54000.00000 0 -18325099.139 -7157569.311 -16237777.612 10 0 59164 54900.00000 0 -19745377.568 -8351670.212 -13820851.341 10 0 59164 55800.00000 0 -21003618.405 -9243214.709 -11135449.610 10 0 59164 56700.00000 0 -22041675.965 -9843785.144 -8233697.085 10 0 59164 57600.00000 0 -22807027.269 -10176642.878 -5171943.971 10 0 59164 58500.00000 0 -23255027.585 -10275492.796 -2009671.749 10 0 59164 59400.00000 0 -23350855.670 -10182812.611 1191664.290 10 0 59164 60300.00000 0 -23071065.987 -9947818.191 4369833.000 10 0 59164 61200.00000 0 -22404681.559 -9624151.650 7463041.850 10 0 59164 62100.00000 0 -21353780.507 -9267390.834 10411143.716 10 0 59164 63000.00000 0 -19933550.643 -8932486.483 13156811.782 10 0 59164 63900.00000 0 -18171809.081 -8671236.385 15646658.968 10 0 59164 64800.00000 0 -16108006.394 -8529904.242 17832279.590 10 0 59164 65700.00000 0 -13791756.586 -8547084.722 19671192.710 10 0 59164 66600.00000 0 -11280954.147 -8751905.541 21127668.612 10 0 59164 67500.00000 0 -8639556.639 -9162643.064 22173422.505 10 0 59164 68400.00000 0 -5935125.101 -9785810.253 22788162.238 10 0 59164 69300.00000 0 -3236224.592 -10615755.772 22959979.737 10 0 59164 70200.00000 0 -609792.728 -11634791.448 22685579.032 10 0 59164 71100.00000 0 1881414.896 -12813843.054 21970336.822 10 0 59164 72000.00000 0 4181196.725 -14113597.328 20828194.712 10 0 59164 72900.00000 0 6241996.986 -15486097.356 19281385.451 10 0 59164 73800.00000 0 8026631.208 -16876719.602 17359998.495 10 0 59164 74700.00000 0 9509574.763 -18226449.762 15101393.388 10 0 59164 75600.00000 0 10677762.158 -19474362.094 12549472.231 10 0 59164 76500.00000 0 11530865.117 -20560198.156 9753825.256 10 0 59164 77400.00000 0 12081039.320 -21426936.621 6768766.116 10 0 59164 78300.00000 0 12352151.946 -22023246.082 3652275.609 10 0 59164 79200.00000 0 12378523.932 -22305717.624 464874.452 10 0 59164 80100.00000 0 12203241.146 -22240783.030 -2731552.771 10 0 59164 81000.00000 0 11876106.832 -21806237.772 -5874959.400 10 0 59164 81900.00000 0 11451322.621 -20992304.464 -8904340.738 10 0 59164 82800.00000 0 10984996.692 -19802191.816 -11760916.669 10 0 59164 83700.00000 0 10532584.796 -18252125.252 -14389269.888 10 0 59164 84600.00000 0 10146372.458 -16370847.519 -16738417.792 10 0 59164 85500.00000 0 9873104.689 -14198609.710 -18762797.415 10 0 59165 0.00000 0 9751863.147 -11785694.329 -20423144.755 10 0 59165 900.00000 0 9812280.490 -9190531.037 -21687252.175 10 0 59165 1800.00000 0 10073165.981 -6477483.441 -22530589.340 10 0 59165 2700.00000 0 10541602.182 -3714397.305 -22936776.758 10 0 59165 3600.00000 0 11212548.876 -970011.447 -22897902.884 10 0 59165 4500.00000 0 12068972.761 1688662.242 -22414678.921 10 0 59165 5400.00000 0 13082497.495 4198882.087 -21496428.406 10 0 59165 6300.00000 0 14214547.838 6504538.742 -20160911.456 10 0 59165 7200.00000 0 15417940.768 8558238.897 -18433986.616 10 0 59165 8100.00000 0 16638857.718 10323024.934 -16349116.154 10 0 59165 9000.00000 0 17819116.003 11773659.711 -13946723.567 10 0 59165 9900.00000 0 18898644.580 12897423.525 -11273415.004 10 0 59165 10800.00000 0 19818060.450 13694390.643 -8381078.981 10 0 59165 11700.00000 0 20521237.342 14177174.367 -5325881.307 10 0 59165 12600.00000 0 20957758.197 14370151.911 -2167174.567 10 0 59165 13500.00000 0 21085147.528 14308202.320 1033656.698 10 0 59165 14400.00000 0 20870788.709 14035011.289 4214392.398 10 0 59165 15300.00000 0 20293444.342 13601015.094 7313191.029 10 0 59165 16200.00000 0 19344314.489 13061071.326 10269797.314 10 0 59165 17100.00000 0 18027587.076 12471955.666 13026719.173 10 0 59165 18000.00000 0 16360456.251 11889791.374 15530350.381 10 0 59165 18900.00000 0 14372607.019 11367520.925 17732016.554 10 0 59165 19800.00000 0 12105186.921 10952527.320 19588923.830 10 0 59165 20700.00000 0 9609307.308 10684506.081 21064991.546 10 0 59165 21600.00000 0 6944136.291 10593678.146 22131552.899 10 0 59165 22500.00000 0 4174662.565 10699419.271 22767910.199 10 0 59165 23400.00000 0 1369222.961 11009363.836 22961734.285 10 0 59165 24300.00000 0 -1403103.809 11519020.798 22709300.804 10 0 59165 25200.00000 0 -4075129.333 12211917.976 22015559.134 10 0 59165 26100.00000 0 -6584104.753 13060268.542 20894032.942 10 0 59165 27000.00000 0 -8874081.887 14026131.666 19366554.532 10 0 59165 27900.00000 0 -10897988.997 15063018.519 17462838.183 10 0 59165 28800.00000 0 -12619335.773 16117876.073 15219900.788 10 0 59165 29700.00000 0 -14013477.732 17133365.260 12681340.955 10 0 59165 30600.00000 0 -15068388.590 18050337.604 9896490.452 10 0 59165 31500.00000 0 -15784909.616 18810405.968 6919454.473 10 0 59165 32400.00000 0 -16176467.025 19358501.057 3808059.357 10 0 59165 33300.00000 0 -16268270.620 19645305.771 622728.291 10 0 59165 34200.00000 0 -16096028.685 19629464.614 -2574692.933 10 0 59165 35100.00000 0 -15704234.413 19279474.765 -5722137.050 10 0 59165 36000.00000 0 -15144097.077 18575178.826 -8758519.848 10 0 59165 36900.00000 0 -14471205.976 17508796.025 -11624924.413 10 0 59165 37800.00000 0 -13743026.240 16085448.054 -14265742.073 10 0 59165 38700.00000 0 -13016332.431 14323156.882 -16629748.056 10 0 59165 39600.00000 0 -12344688.247 12252314.041 -18671091.134 10 0 59165 40500.00000 0 -11776078.432 9914642.803 -20350178.571 10 0 59165 41400.00000 0 -11350792.409 7361695.718 -21634439.759 10 0 59165 42300.00000 0 -11099648.415 4652949.202 -22498954.285 10 0 59165 43200.00000 0 -11042632.561 1853573.412 -22926932.866 10 0 59165 44100.00000 0 -11188009.879 -968031.108 -22910042.282 10 0 59165 45000.00000 0 -11531944.704 -3742828.793 -22448568.246 10 0 59165 45900.00000 0 -12058646.550 -6403769.948 -21551413.111 10 0 59165 46800.00000 0 -12741035.751 -8888329.535 -20235928.174 10 0 59165 47700.00000 0 -13541901.486 -11140859.415 -18527583.376 10 0 59165 48600.00000 0 -14415504.184 -13114657.216 -16459480.106 10 0 59165 49500.00000 0 -15309555.583 -14773666.570 -14071715.721 10 0 59165 50400.00000 0 -16167493.705 -16093738.394 -11410611.365 10 0 59165 51300.00000 0 -16930957.321 -17063401.157 -8527817.320 10 0 59165 52200.00000 0 -17542355.718 -17684108.355 -5479312.693 10 0 59165 53100.00000 0 -17947425.206 -17969953.237 -2324318.666 10 0 59165 54000.00000 0 -18097663.964 -17946863.269 875853.629 10 0 59165 54900.00000 0 -17952541.653 -17651308.762 4058997.961 10 0 59165 55800.00000 0 -17481389.515 -17128580.663 7163226.764 10 0 59165 56700.00000 0 -16664889.995 -16430710.869 10128179.607 10 0 59165 57600.00000 0 -15496101.843 -15614123.589 12896202.171 10 0 59165 58500.00000 0 -13980976.274 -14737117.677 15413472.056 10 0 59165 59400.00000 0 -12138341.323 -13857286.958 17631049.017 10 0 59165 60300.00000 0 -9999353.965 -13028988.063 19505828.877 10 0 59165 61200.00000 0 -7606442.115 -12300963.090 21001382.339 10 0 59165 62100.00000 0 -5011780.011 -11714217.618 22088662.537 10 0 59165 63000.00000 0 -2275359.934 -11300243.578 22746567.804 10 0 59165 63900.00000 0 537259.777 -11079661.784 22962349.049 10 0 59165 64800.00000 0 3357437.246 -11061340.992 22731854.301 10 0 59165 65700.00000 0 6116057.403 -11242030.271 22059606.019 10 0 59165 66600.00000 0 8746162.134 -11606519.741 20958709.997 10 0 59165 67500.00000 0 11185491.626 -12128322.560 19450597.838 10 0 59165 68400.00000 0 13378832.019 -12770849.103 17564608.060 10 0 59165 69300.00000 0 15280072.487 -13489023.581 15337414.000 10 0 59165 70200.00000 0 16853887.085 -14231274.758 12812309.517 10 0 59165 71100.00000 0 18076972.326 -14941816.644 10038366.280 10 0 59165 72000.00000 0 18938789.896 -15563122.777 7069478.999 10 0 59165 72900.00000 0 19441784.701 -16038489.500 3963317.161 10 0 59165 73800.00000 0 19601070.391 -16314579.813 780203.690 10 0 59165 74700.00000 0 19443596.731 -16343840.171 -2418057.391 10 0 59165 75600.00000 0 19006835.034 -16086687.897 -5569381.359 10 0 59165 76500.00000 0 18337037.960 -15513376.558 -8612607.703 10 0 59165 77400.00000 0 17487147.800 -14605460.234 -11488685.914 10 0 59165 78300.00000 0 16514441.985 -13356794.490 -14141819.082 10 0 59165 79200.00000 0 15478015.329 -11774031.328 -16520543.243 10 0 59165 80100.00000 0 14436205.197 -9876586.618 -18578721.701 10 0 59165 81000.00000 0 13444067.822 -7696080.535 -20276435.503 10 0 59165 81900.00000 0 12551011.625 -5275273.345 -21580753.373 10 0 59165 82800.00000 0 11798686.604 -2666539.944 -22466366.706 10 0 59165 83700.00000 0 11219217.923 70054.533 -22916077.931 10 0 59165 84600.00000 0 10833857.417 2868999.304 -22921133.258 10 0 59165 85500.00000 0 10652109.224 5661810.645 -22481393.577 10 0 59166 0.00000 0 10671365.975 8379631.391 -21605340.319 10 0 59166 900.00000 0 10877070.987 10955850.537 -20309915.719 10 0 59166 1800.00000 0 11243399.121 13328635.270 -18620200.551 10 0 59166 2700.00000 0 11734429.088 15443270.683 -16568934.305 10 0 59166 3600.00000 0 12305757.070 17254211.496 -14195886.789 10 0 59166 4500.00000 0 12906484.876 18726759.954 -11547092.328 10 0 59166 5400.00000 0 13481498.762 19838300.790 -8673960.769 10 0 59166 6300.00000 0 13973942.951 20579041.834 -5632281.959 10 0 59166 7200.00000 0 14327783.273 20952229.465 -2481142.807 10 0 59166 8100.00000 0 14490352.172 20973830.198 718222.058 10 0 59166 9000.00000 0 14414766.820 20671692.112 3903623.498 10 0 59166 9900.00000 0 14062117.179 20084221.817 7013131.159 10 0 59166 10800.00000 0 13403330.428 19258633.227 9986282.664 10 0 59166 11700.00000 0 12420631.733 18248842.562 12765264.523 10 0 59166 12600.00000 0 11108538.439 17113098.988 15296041.040 10 0 59166 13500.00000 0 9474344.518 15911451.436 17529408.747 10 0 59166 14400.00000 0 7538073.621 14703158.938 19421955.530 10 0 59166 15300.00000 0 5331901.632 13544154.045 20936905.551 10 0 59166 16200.00000 0 2899071.929 12484666.357 22044833.661 10 0 59166 17100.00000 0 292347.783 11567106.214 22724235.648 10 0 59166 18000.00000 0 -2427934.183 10824297.360 22961943.552 10 0 59166 18900.00000 0 -5196129.007 10278132.478 22753378.423 10 0 59166 19800.00000 0 -7943773.305 9938707.551 22102635.983 10 0 59166 20700.00000 0 -10602196.939 9803970.755 21022403.847 10 0 59166 21600.00000 0 -13105148.566 9859899.937 19533712.128 10 0 59166 22500.00000 0 -15391326.476 10081200.447 17665522.331 10 0 59166 23400.00000 0 -17406710.076 10432493.334 15454162.549 10 0 59166 24300.00000 0 -19106595.699 10869943.181 12942619.855 10 0 59166 25200.00000 0 -20457252.733 11343256.465 10179703.512 10 0 59166 26100.00000 0 -21437131.760 11797965.625 7219095.259 10 0 59166 27000.00000 0 -22037575.211 12177902.030 4118305.131 10 0 59166 27900.00000 0 -22263001.837 12427752.967 937553.153 10 0 59166 28800.00000 0 -22130558.232 12495594.257 -2261401.095 10 0 59166 29700.00000 0 -21669253.132 12335291.108 -5416458.099 10 0 59166 30600.00000 0 -20918611.769 11908665.371 -8466383.725 10 0 59166 31500.00000 0 -19926907.717 11187337.271 -11351996.505 10 0 59166 32400.00000 0 -18749047.216 10154163.431 -14017313.867 10 0 59166 33300.00000 0 -17444195.387 8804209.988 -16410635.114 10 0 59166 34200.00000 0 -16073244.314 7145219.180 -18485540.363 10 0 59166 35100.00000 0 -14696229.309 5197548.951 -20201786.495 10 0 59166 36000.00000 0 -13369801.529 2993587.046 -21526083.330 10 0 59166 36900.00000 0 -12144862.521 576662.964 -22432735.506 10 0 59166 37800.00000 0 -11064459.246 -2000498.100 -22904138.263 10 0 59166 38700.00000 0 -10162027.107 -4677716.380 -22931117.963 10 0 59166 39600.00000 0 -9460053.969 -7389614.260 -22513111.031 10 0 59166 40500.00000 0 -8969220.542 -10068096.229 -21658177.899 10 0 59166 41400.00000 0 -8688052.705 -12644950.354 -20382851.455 10 0 59166 42300.00000 0 -8603100.106 -15054464.231 -18711822.477 10 0 59166 43200.00000 0 -8689633.356 -17235947.690 -16677467.486 10 0 59166 44100.00000 0 -8912830.546 -19136058.022 -14319227.351 10 0 59166 45000.00000 0 -9229403.188 -20710831.304 -11682847.948 10 0 59166 45900.00000 0 -9589593.136 -21927335.444 -8819496.865 10 0 59166 46800.00000 0 -9939456.187 -22764875.993 -5784772.709 10 0 59166 47700.00000 0 -10223335.723 -23215704.294 -2637626.015 10 0 59166 48600.00000 0 -10386421.425 -23285198.340 560787.308 10 0 59166 49500.00000 0 -10377284.173 -22991508.815 3748297.550 10 0 59166 50400.00000 0 -10150279.055 -22364685.376 6862934.019 10 0 59166 51300.00000 0 -9667713.741 -21445320.214 9844134.960 10 0 59166 52200.00000 0 -8901689.325 -20282766.426 12633930.376 10 0 59166 53100.00000 0 -7835534.613 -18933006.685 15178073.966 10 0 59166 54000.00000 0 -6464771.995 -17456262.504 17427101.703 10 0 59166 54900.00000 0 -4797572.898 -15914445.173 19337296.079 10 0 59166 55800.00000 0 -2854682.480 -14368556.025 20871537.062 10 0 59166 56700.00000 0 -668815.562 -12876145.534 22000023.302 10 0 59166 57600.00000 0 1716451.940 -11488937.963 22700849.803 10 0 59166 58500.00000 0 4248250.612 -10250721.125 22960431.131 10 0 59166 59400.00000 0 6866379.547 -9195589.293 22773762.388 10 0 59166 60300.00000 0 9505581.726 -8346612.307 22144513.221 10 0 59166 61200.00000 0 12098038.589 -7714985.882 21084953.369 10 0 59166 62100.00000 0 14575980.567 -7299697.790 19615711.402 10 0 59166 63000.00000 0 16874305.527 -7087722.891 17765371.408 10 0 59166 63900.00000 0 18933096.586 -7054737.832 15569915.485 10 0 59166 64800.00000 0 20699934.992 -7166324.303 13072022.792 10 0 59166 65700.00000 0 22131912.261 -7379609.307 10320238.669 10 0 59166 66600.00000 0 23197258.120 -7645272.445 7368029.971 10 0 59166 67500.00000 0 23876516.967 -7909834.803 4272744.976 10 0 59166 68400.00000 0 24163224.352 -8118132.119 1094498.147 10 0 59166 69300.00000 0 24064055.919 -8215867.170 -2104998.317 10 0 59166 70200.00000 0 23598443.376 -8152132.977 -5263633.248 10 0 59166 71100.00000 0 22797674.432 -7881799.709 -8320102.084 10 0 59166 72000.00000 0 21703515.180 -7367663.976 -11215095.594 10 0 59166 72900.00000 0 20366413.401 -6582269.289 -13892448.619 10 0 59166 73800.00000 0 18843358.629 -5509320.320 -16300226.649 10 0 59166 74700.00000 0 17195489.005 -4144630.807 -18391729.308 10 0 59166 75600.00000 0 15485545.270 -2496564.412 -20126391.776 10 0 59166 76500.00000 0 13775278.295 -585949.075 -21470567.162 10 0 59166 77400.00000 0 12122918.261 1554532.650 -22398175.264 10 0 59166 78300.00000 0 10580810.722 3881453.068 -22891205.720 10 0 59166 79200.00000 0 9193317.610 6342203.766 -22940066.287 10 0 59166 80100.00000 0 7995070.160 8876951.186 -22543769.782 10 0 59166 81000.00000 0 7009645.968 11420903.415 -21709956.125 10 0 59166 81900.00000 0 6248724.755 13906795.295 -20454748.839 10 0 59166 82800.00000 0 5711757.610 16267489.643 -18802448.357 10 0 59166 83700.00000 0 5386163.034 18438587.378 -16785067.403 10 0 59166 84600.00000 0 5248041.223 20360938.674 -14441716.662 10 0 59166 85500.00000 0 5263376.309 21982950.877 -11817851.895 99